TIROS 8 DEB, 19396

Orbit data source: Space-Track

TIROS 8 DEB, 19396 is space debris in LEO originally from a launch on Sat, 21 Dec 1963 UTC launched from the Air Force Western Test Range (AFWTR). Debris objects in space refer to the collection of defunct objects orbiting the Earth. Examples of debris include non-operational satellites, rocket bodies, and fragments generated from explosions, collisions, or faulty payload assembly.

Loading next visibility...
Identifier
19396, 1963-054E
Orbit
LEO
Last TLE update
19 hours ago
Origin
Manufacturer
Unknown
Mission
Spacecraft
Bus & Motor
Unknown
Mass
Unknown
Launch date (UTC)
1963-12-21 (62 years ago)
Launch vehicle
Unknown
Launch site
Air Force Western Test Range (AFWTR)
Object type
Payload
Rocket body
Debris
Shape & HBR
Unknown
Radar Cross Section
Small (<0.1 m²)

Expand to show TLE details & history

TLE from 19 hours ago
0 TIROS 8 DEB
1 19396U 63054E   25181.81044858  .00002533  00000-0  17300-3 0  9998
2 19396  58.4660 217.3591 0010194 307.5112  52.5017 15.09446621981399
Epoch: 2025-06-30T19:27Z
TLE epoch observation values (Epoch: 2025-06-30T19:27:02.757Z)
Latitude
-0.00001°
Longitude
6.48269°
Altitude
535.041 km
Speed
7.598 km/s
True Right ascension
14h 29m 26s
True Declination
0° 00' 00"
Sunlit
Object was in full shadow at epoch
Visualization orbit readout
Latitude
-43.02618°
Longitude
-141.82234°
Altitude
551.098 km
Speed
7.587 km/s
Apparent Right ascension
08h 56m 52s
Apparent Declination
-66° 33' 37"
Sunlit
Object is in daylight
Visualization observer readout
Local Sidereal Time
01:36:55
Azimuth
148.767° SSE
Elevation
-43.868°
Doppler factor
1
Orbital elements
Apogee altitude
544.372 km
Perigee altitude
530.273 km
Semi-major axis
6,915.46 km
Eccentricity
0.00102
Inclination
58.466°
RAAN
217.3591°
Arg. of periapsis
307.5112°
True anomaly
Unknown
Mean anomaly
52.5017°
Eccentric anomaly
Unknown
Mean motion
3.77408 °/min
Orbital period
95.39 mins
BSTAR
0.000173
Loading maneuver chart data...
Loading SW <> Apogee altitude chart data...
Loading historical data...
Loading historical data...
Loading historical data...
Loading historical data...
Loading historical data...
Loading historical data...
Loading historical data...
Other satellites on launch #54 in the year 1963 (1963-12-21 UTC)

TIROS 8 DEB Visibility forecast

Observer location: undefined°, undefined°

Span
Click to sort rows by Start time (UTC) header in descending order
Start Az.
Max El. time (UTC)
Max El. Az.
Max El.
End time (UTC)
End Az.
5 mins2025-07-02 03:22:53.603Z165.046° S2025-07-02 03:25:53.603Z112.562° SE18.899°2025-07-02 03:27:53.603Z78.962° E
5 mins2025-07-02 05:01:53.603Z257.062° W2025-07-02 05:03:53.603Z310.189° NW33.966°2025-07-02 05:06:53.603Z23.244° NE
7 mins2025-07-02 11:41:53.603Z333.666° NNW2025-07-02 11:44:53.603Z36.562° NE35.224°2025-07-02 11:48:53.603Z117.524° SE
4 mins2025-07-02 13:21:53.603Z270.311° WNW2025-07-02 13:23:53.603Z232.662° WSW18.187°2025-07-02 13:25:53.603Z199.724° SSW
|